Location: ?????????
(38.5999°N, 22.7695°E)
Time: 03:09:35
(UTC+00:00)

PAYLOAD A - Pass Details

Date: 14 August 2024
Orbit: 690 x 831 km, 98.5° (Epoch: 09 September)

Event Time Altitude Azimuth Distance (km) Brightness Sun altitude
Rises 02:25:00 0° 10° (N) 3,184 7.9 -14.5°
Reaches altitude 10° 02:27:20 10° 8° (N) 2,236 7.0 -14.1°
Maximum altitude 02:32:11 71° 286° (WNW) 756 3.8 -13.3°
Enters shadow 02:36:42 11° 203° (SSW) 2,086 5.8 -12.5°
